Location: Azul
(36.7830°S, 59.8500°W)
Time: 20:54:46
(UTC-03:00)

AO-27 - Visible Passes

Search period start: 23 October 2021 00:00
Search period end: 02 November 2021 00:00
Orbit: 785 x 797 km, 98.9° (Epoch: 23 October)

Date Brightness Start Highest point End Pass type
(mag) Time Alt. Az. Time Alt. Az. Time Alt. Az.
23 Oct 7.7 20:03:47 10° SSE 20:09:00 61° E 20:14:09 10° N visible
23 Oct 10.6 21:44:51 10° SSW 21:47:54 16° WSW 21:50:56 10° W visible
24 Oct 9.7 21:14:36 10° S 21:19:04 29° WSW 21:23:29 10° NW visible
25 Oct 8.5 20:44:58 10° S 20:50:06 54° WSW 20:55:09 10° NNW visible
26 Oct 7.6 20:15:43 10° SSE 20:21:00 79° ENE 20:26:12 10° N visible
26 Oct 10.8 21:57:42 10° SW 21:59:43 12° WSW 22:01:43 10° W visible
27 Oct 10.1 21:26:54 10° SSW 21:30:55 23° WSW 21:34:55 10° WNW visible
28 Oct 9.0 20:57:05 10° S 21:02:01 42° WSW 21:06:53 10° NW visible
29 Oct 7.8 20:27:41 10° S 20:32:58 81° WSW 20:38:10 10° NNW visible
30 Oct 7.8 19:58:39 10° SSE 20:03:48 53° E 20:08:51 10° N visible
30 Oct 10.4 21:39:20 10° SSW 21:42:47 18° WSW 21:46:12 10° WNW visible
31 Oct 9.5 21:09:16 10° S 21:13:55 33° WSW 21:18:30 10° NW visible
01 Nov 8.2 20:39:43 10° S 20:44:55 62° WSW 20:50:02 10° NNW visible
